Weather History for Camden, AR

Change the Weather History Date:

Wednesday, November 21, 2012

  Actual Average Record
Temperature  
Mean Temperature 56 °F -  
Max Temperature 73 °F 63 °F 81 °F (1956)
Min Temperature 39 °F 38 °F 19 °F (1951)
Degree Days  
Heating Degree Days 9    
Growing Degree Days 6 (Base 50)    
Moisture  
Dew Point 44 °F    
Average Humidity 76    
Maximum Humidity 100    
Minimum Humidity 35    
Precipitation  
Precipitation 0.00 in - - ()
Sea Level Pressure  
Sea Level Pressure 30.23 in    
Wind  
Wind Speed 0 mph (NNE)    
Max Wind Speed 7 mph    
Max Gust Speed -    
Visibility 5 miles    
Events Fog    
Averages and records for this station are not official NWS values.
T = Trace of Precipitation, MM = Missing Value Source: NWS Daily Summary

Daily Weather History Graph

Daily Weather History Graph

Search for Another Location

Airport:

Trip Planner

Search our weather history database for the weather conditions in past years. The results will help you decide how hot, cold, wet, or windy it might be!

Date:

Astronomy

Nov. 21, 2012 Rise Set
Actual Time 6:48 AM CST 5:05 PM CST
Civil Twilight 6:22 AM CST 5:31 PM CST
Nautical Twilight 5:51 AM CST 6:02 PM CST
Astronomical Twilight 5:21 AM CST 6:31 PM CST
Moon 1:05 PM CST 12:26 AM CST
Length of Visible Light 11h 09m
Length of Day
10h 16m
First Quarter, 62% of the Moon is Illuminated
Nov 21
First Quarter
Nov 28
Full
Dec 6
Last Quarter
Dec 13
New
Dec 19
First Quarter

Hourly Weather History & Observations

Time (CST) Temp. Dew Point Humidity Pressure Visibility Wind Dir Wind Speed Gust Speed Precip Events Conditions
12:15 AM 46.4 °F 44.6 °F 93% 30.18 in 3.0 mi Calm Calm - N/A   Clear
12:35 AM 46.4 °F 44.6 °F 93% 30.18 in 2.5 mi Calm Calm - N/A   Clear
12:55 AM 46.4 °F 44.6 °F 93% 30.18 in 2.0 mi Calm Calm - N/A   Clear
1:15 AM 44.6 °F 42.8 °F 93% 30.19 in 3.0 mi Calm Calm - N/A   Clear
1:35 AM 44.6 °F 42.8 °F 93% 30.19 in 1.8 mi Calm Calm - N/A   Clear
1:55 AM 44.6 °F 42.8 °F 93% 30.20 in 2.5 mi Calm Calm - N/A   Clear
2:15 AM 44.6 °F 42.8 °F 93% 30.19 in 1.5 mi Calm Calm - N/A   Clear
2:35 AM 44.6 °F 42.8 °F 93% 30.20 in 1.5 mi Calm Calm - N/A   Clear
2:55 AM 44.6 °F 41.0 °F 87% 30.21 in 3.0 mi Calm Calm - N/A   Clear
3:15 AM 44.6 °F 41.0 °F 87% 30.21 in 4.0 mi Calm Calm - N/A   Clear
3:35 AM 42.8 °F 41.0 °F 93% 30.21 in 3.0 mi Calm Calm - N/A   Clear
3:55 AM 41.0 °F 41.0 °F 100% 30.21 in 0.2 mi Calm Calm - N/A Fog Fog
4:15 AM 41.0 °F 39.2 °F 93% 30.22 in 1.0 mi Calm Calm - N/A   Clear
4:35 AM 41.0 °F 41.0 °F 100% 30.22 in 2.5 mi Calm Calm - N/A   Clear
4:55 AM 39.2 °F 39.2 °F 100% 30.23 in 2.0 mi Calm Calm - N/A   Clear
5:15 AM 39.2 °F 39.2 °F 100% 30.23 in 2.0 mi Calm Calm - N/A   Clear
5:35 AM 39.2 °F 37.4 °F 93% 30.24 in 0.2 mi Calm Calm - N/A Fog Fog
5:55 AM 39.2 °F 37.4 °F 93% 30.24 in 1.2 mi Calm Calm - N/A   Clear
6:15 AM 39.2 °F 37.4 °F 93% 30.24 in 1.2 mi Calm Calm - N/A   Clear
6:35 AM 39.2 °F 37.4 °F 93% 30.25 in 3.0 mi Calm Calm - N/A   Clear
6:55 AM 39.2 °F 37.4 °F 93% 30.25 in 1.2 mi Calm Calm - N/A   Clear
7:15 AM 39.2 °F 37.4 °F 93% 30.26 in 1.0 mi Calm Calm - N/A   Clear
7:35 AM 41.0 °F 39.2 °F 93% 30.27 in 3.0 mi Calm Calm - N/A   Clear
7:55 AM 46.4 °F 44.6 °F 93% 30.28 in 3.0 mi Calm Calm - N/A   Clear
8:15 AM 50.0 °F 46.4 °F 87% 30.29 in 5.0 mi Calm Calm - N/A   Clear
8:35 AM 51.8 °F 46.4 °F 82% 30.30 in 5.0 mi Calm Calm - N/A   Haze
8:55 AM 53.6 °F 46.4 °F 77% 30.30 in 6.0 mi Calm Calm - N/A   Haze
9:15 AM 55.4 °F 46.4 °F 72% 30.30 in 5.0 mi North 5.8 mph - N/A   Haze
9:35 AM 57.2 °F 46.4 °F 67% 30.30 in 7.0 mi NNE 6.9 mph - N/A   Clear
9:55 AM 59.0 °F 46.4 °F 63% 30.30 in 8.0 mi NNE 5.8 mph - N/A   Clear
10:15 AM 62.6 °F 46.4 °F 55% 30.31 in 5.0 mi North 3.5 mph - N/A   Haze
10:35 AM 64.4 °F 46.4 °F 52% 30.30 in 6.0 mi NNE 4.6 mph - N/A   Haze
10:55 AM 64.4 °F 46.4 °F 52% 30.29 in 7.0 mi NW 4.6 mph - N/A   Clear
11:15 AM 66.2 °F 46.4 °F 49% 30.28 in 7.0 mi Calm Calm - N/A   Clear
11:35 AM 68.0 °F 46.4 °F 46% 30.27 in 7.0 mi North 4.6 mph - N/A   Clear
11:55 AM 68.0 °F 46.4 °F 46% 30.26 in 5.0 mi Calm Calm - N/A   Haze
12:15 PM 69.8 °F 46.4 °F 43% 30.25 in 7.0 mi Calm Calm - N/A   Clear
12:35 PM 71.6 °F 46.4 °F 41% 30.24 in 5.0 mi North 4.6 mph - N/A   Haze
12:55 PM 71.6 °F 46.4 °F 41% 30.23 in 10.0 mi Calm Calm - N/A   Clear
1:15 PM 73.4 °F 44.6 °F 36% 30.22 in 5.0 mi Calm Calm - N/A   Haze
1:35 PM 73.4 °F 44.6 °F 36% 30.22 in 10.0 mi Calm Calm - N/A   Clear
2:15 PM 73.4 °F 44.6 °F 36% 30.21 in 9.0 mi Calm Calm - N/A   Clear
2:35 PM 73.4 °F 44.6 °F 36% 30.20 in 10.0 mi NNE 3.5 mph - N/A   Clear
2:55 PM 73.4 °F 44.6 °F 36% 30.20 in 10.0 mi Calm Calm - N/A   Clear
3:15 PM 73.4 °F 44.6 °F 36% 30.19 in 10.0 mi Calm Calm - N/A   Clear
3:35 PM 71.6 °F 44.6 °F 38% 30.19 in 10.0 mi Calm Calm - N/A   Clear
3:55 PM 71.6 °F 42.8 °F 35% 30.19 in 10.0 mi Calm Calm - N/A   Clear
4:15 PM 71.6 °F 44.6 °F 38% 30.19 in 10.0 mi Calm Calm - N/A   Clear
4:35 PM 68.0 °F 44.6 °F 43% 30.19 in 10.0 mi Calm Calm - N/A   Clear
4:55 PM 64.4 °F 46.4 °F 52% 30.19 in 10.0 mi Calm Calm - N/A   Clear
5:15 PM 59.0 °F 48.2 °F 67% 30.19 in 10.0 mi Calm Calm - N/A   Clear
5:35 PM 55.4 °F 48.2 °F 77% 30.19 in 10.0 mi Calm Calm - N/A   Clear
5:55 PM 55.4 °F 48.2 °F 77% 30.20 in 10.0 mi Calm Calm - N/A   Clear
6:15 PM 53.6 °F 48.2 °F 82% 30.20 in 10.0 mi Calm Calm - N/A   Clear
6:35 PM 51.8 °F 48.2 °F 88% 30.20 in 10.0 mi Calm Calm - N/A   Clear
6:55 PM 50.0 °F 46.4 °F 87% 30.20 in 10.0 mi Calm Calm - N/A   Clear
7:15 PM 48.2 °F 46.4 °F 93% 30.20 in 9.0 mi Calm Calm - N/A   Clear
7:35 PM 48.2 °F 46.4 °F 93% 30.20 in 8.0 mi Calm Calm - N/A   Clear
7:55 PM 48.2 °F 46.4 °F 93% 30.21 in 7.0 mi Calm Calm - N/A   Clear
8:15 PM 46.4 °F 44.6 °F 93% 30.21 in 5.0 mi Calm Calm - N/A   Clear
8:35 PM 46.4 °F 44.6 °F 93% 30.21 in 5.0 mi Calm Calm - N/A   Clear
8:55 PM 46.4 °F 44.6 °F 93% 30.21 in 5.0 mi Calm Calm - N/A   Clear
9:15 PM 44.6 °F 42.8 °F 93% 30.21 in 7.0 mi Calm Calm - N/A   Clear
9:35 PM 44.6 °F 42.8 °F 93% 30.21 in 5.0 mi Calm Calm - N/A   Clear
9:55 PM 44.6 °F 42.8 °F 93% 30.21 in 0.2 mi Calm Calm - N/A Fog Fog
10:15 PM 44.6 °F 41.0 °F 87% 30.21 in 0.5 mi Calm Calm - N/A Fog Fog
10:35 PM 42.8 °F 41.0 °F 93% 30.21 in 3.0 mi Calm Calm - N/A   Clear
10:55 PM 42.8 °F 41.0 °F 93% 30.21 in 1.8 mi Calm Calm - N/A   Clear
11:15 PM 41.0 °F 39.2 °F 93% 30.21 in 2.0 mi Calm Calm - N/A   Clear
11:35 PM 41.0 °F 39.2 °F 93% 30.20 in 5.0 mi Calm Calm - N/A   Clear
11:55 PM 41.0 °F 39.2 °F 93% 30.20 in 3.0 mi Calm Calm - N/A   Clear